When you browse on this site, cookies collect data to enhance your experience and personalize the content and advertising you see.
Visit our Privacy Policy to learn more. By continuing to use the site, you agree to this use of cookies and data.

Meteo pe oră la Dziankowek

Astăzi, 25 Septembrie, Vineri

Timp Temperatura Precipitaţii Vânt Presiune Umiditate
00:00 +17°C° 0 mm 2 m/s 743 mmHg 73%
01:00 +17°C° 0 mm 2 m/s 743 mmHg 75%
02:00 +17°C° 0 mm 2 m/s 742 mmHg 77%
03:00 +16°C° 0 mm 3 m/s 742 mmHg 80%
04:00 +16°C° 0 mm 3 m/s 742 mmHg 82%
05:00 +16°C° 0 mm 3 m/s 741 mmHg 81%
06:00 +17°C° 0 mm 4 m/s 740 mmHg 80%
07:00 +17°C° 0 mm 4 m/s 740 mmHg 79%
08:00 +19°C° 0 mm 5 m/s 739 mmHg 71%
09:00 +21°C° 0 mm 6 m/s 739 mmHg 63%
10:00 +23°C° 0 mm 6 m/s 739 mmHg 55%
11:00 +24°C° 0 mm 6 m/s 738 mmHg 52%
12:00 +24°C° 0 mm 6 m/s 738 mmHg 49%
13:00 +26°C° 0 mm 6 m/s 737 mmHg 47%
14:00 +24°C° 0.2 mm 6 m/s 737 mmHg 52%
15:00 +23°C° 0.2 mm 5 m/s 736 mmHg 57%
16:00 +22°C° 0.2 mm 4 m/s 736 mmHg 63%
17:00 +21°C° 1.1 mm 4 m/s 736 mmHg 72%
18:00 +19°C° 1.1 mm 3 m/s 736 mmHg 80%
19:00 +18°C° 1.1 mm 3 m/s 736 mmHg 89%
20:00 +17°C° 0.2 mm 3 m/s 736 mmHg 90%
21:00 +17°C° 0.2 mm 2 m/s 736 mmHg 91%
22:00 +16°C° 0.2 mm 2 m/s 736 mmHg 92%
23:00 +16°C° 0 mm 1 m/s 736 mmHg 93%

Mâine, 26 Septembrie, Sâmbătă

Timp Temperatura Precipitaţii Vânt Presiune Umiditate
00:00 +15°C° 0 mm 1 m/s 736 mmHg 94%
01:00 +15°C° 0 mm 1 m/s 736 mmHg 95%
02:00 +15°C° 0 mm 1 m/s 735 mmHg 96%
03:00 +15°C° 0 mm 2 m/s 735 mmHg 96%
04:00 +15°C° 0 mm 2 m/s 735 mmHg 96%
05:00 +14°C° 0 mm 3 m/s 734 mmHg 94%
06:00 +15°C° 0 mm 4 m/s 734 mmHg 92%
07:00 +15°C° 0 mm 5 m/s 734 mmHg 90%
08:00 +17°C° 0 mm 5 m/s 734 mmHg 84%
09:00 +19°C° 0 mm 6 m/s 734 mmHg 78%
10:00 +20°C° 0 mm 6 m/s 734 mmHg 72%
11:00 +19°C° 0.2 mm 6 m/s 734 mmHg 75%
12:00 +19°C° 0.2 mm 6 m/s 734 mmHg 78%
13:00 +19°C° 0.2 mm 6 m/s 734 mmHg 81%
14:00 +17°C° 0.6 mm 5 m/s 734 mmHg 83%
15:00 +18°C° 0.6 mm 4 m/s 734 mmHg 85%
16:00 +17°C° 0.6 mm 3 m/s 735 mmHg 87%
17:00 +16°C° 0.5 mm 3 m/s 735 mmHg 85%
18:00 +16°C° 0.5 mm 2 m/s 735 mmHg 84%
19:00 +15°C° 0.5 mm 2 m/s 736 mmHg 82%
20:00 +15°C° 0.4 mm 2 m/s 736 mmHg 83%
21:00 +13°C° 0.4 mm 3 m/s 736 mmHg 84%
22:00 +13°C° 0.4 mm 3 m/s 737 mmHg 85%
23:00 +12°C° 0.9 mm 3 m/s 737 mmHg 85%

Poimâine, 27 Septembrie, Duminică

Timp Temperatura Precipitaţii Vânt Presiune Umiditate
00:00 +12°C° 0.9 mm 3 m/s 737 mmHg 86%
01:00 +11°C° 0.9 mm 4 m/s 737 mmHg 86%
02:00 +11°C° 1.2 mm 4 m/s 737 mmHg 87%
03:00 +10°C° 1.2 mm 4 m/s 737 mmHg 87%
04:00 +10°C° 1.2 mm 3 m/s 737 mmHg 88%
05:00 +9°C° 0.7 mm 3 m/s 737 mmHg 88%
06:00 +9°C° 0.7 mm 3 m/s 738 mmHg 88%
07:00 +8°C° 0.7 mm 4 m/s 738 mmHg 88%
08:00 +8°C° 0.7 mm 4 m/s 738 mmHg 89%
09:00 +8°C° 0.7 mm 4 m/s 738 mmHg 89%
10:00 +8°C° 0.7 mm 4 m/s 738 mmHg 90%
11:00 +8°C° 2.6 mm 5 m/s 738 mmHg 91%
12:00 +8°C° 2.6 mm 6 m/s 738 mmHg 92%
13:00 +8°C° 2.6 mm 7 m/s 737 mmHg 93%
14:00 +8°C° 1.9 mm 7 m/s 737 mmHg 93%
15:00 +8°C° 1.9 mm 7 m/s 737 mmHg 93%
16:00 +9°C° 1.9 mm 7 m/s 737 mmHg 93%
17:00 +9°C° 0.9 mm 7 m/s 738 mmHg 93%
18:00 +9°C° 0.9 mm 7 m/s 738 mmHg 93%
19:00 +9°C° 0.9 mm 7 m/s 738 mmHg 93%
20:00 +9°C° 0.2 mm 6 m/s 739 mmHg 92%
21:00 +9°C° 0.2 mm 6 m/s 739 mmHg 92%
22:00 +9°C° 0.2 mm 6 m/s 740 mmHg 92%
23:00 +9°C° 0.8 mm 6 m/s 740 mmHg 92%

28 Septembrie, Luni

Timp Temperatura Precipitaţii Vânt Presiune Umiditate
00:00 +9°C° 0.8 mm 6 m/s 740 mmHg 92%
01:00 +9°C° 0.8 mm 7 m/s 740 mmHg 92%
02:00 +9°C° 0.8 mm 7 m/s 740 mmHg 92%
03:00 +9°C° 0.8 mm 7 m/s 740 mmHg 91%
04:00 +9°C° 0.8 mm 8 m/s 741 mmHg 91%
05:00 +9°C° 1.2 mm 8 m/s 741 mmHg 91%
06:00 +9°C° 1.2 mm 8 m/s 741 mmHg 91%
07:00 +9°C° 1.2 mm 8 m/s 741 mmHg 90%
08:00 +9°C° 0.9 mm 8 m/s 742 mmHg 90%
09:00 +9°C° 0.9 mm 7 m/s 742 mmHg 89%
10:00 +9°C° 0.9 mm 7 m/s 743 mmHg 88%
11:00 +10°C° 0.1 mm 6 m/s 743 mmHg 84%
12:00 +10°C° 0.1 mm 6 m/s 743 mmHg 79%
13:00 +11°C° 0.1 mm 6 m/s 744 mmHg 74%
14:00 +12°C° 0 mm 5 m/s 744 mmHg 73%
15:00 +13°C° 0 mm 4 m/s 744 mmHg 72%
16:00 +13°C° 0 mm 4 m/s 744 mmHg 71%
17:00 +13°C° 0 mm 4 m/s 744 mmHg 71%
18:00 +12°C° 0 mm 4 m/s 745 mmHg 72%
19:00 +11°C° 0 mm 4 m/s 745 mmHg 73%
20:00 +11°C° 0 mm 4 m/s 745 mmHg 75%
21:00 +10°C° 0 mm 3 m/s 745 mmHg 77%
22:00 +9°C° 0 mm 3 m/s 745 mmHg 80%
23:00 +9°C° 0 mm 3 m/s 745 mmHg 82%

29 Septembrie, Marţi

Timp Temperatura Precipitaţii Vânt Presiune Umiditate
00:00 +9°C° 0 mm 3 m/s 745 mmHg 84%
01:00 +9°C° 0 mm 3 m/s 745 mmHg 86%
02:00 +8°C° 0 mm 3 m/s 745 mmHg 86%
03:00 +8°C° 0 mm 3 m/s 745 mmHg 86%
04:00 +8°C° 0 mm 3 m/s 745 mmHg 86%
05:00 +8°C° 0 mm 2 m/s 745 mmHg 85%
06:00 +9°C° 0 mm 2 m/s 745 mmHg 84%
07:00 +9°C° 0 mm 2 m/s 745 mmHg 84%
08:00 +12°C° 0 mm 2 m/s 745 mmHg 78%
09:00 +13°C° 0 mm 2 m/s 745 mmHg 72%
10:00 +15°C° 0 mm 2 m/s 745 mmHg 65%
11:00 +16°C° 0 mm 2 m/s 746 mmHg 62%
12:00 +17°C° 0 mm 2 m/s 746 mmHg 59%
13:00 +17°C° 0 mm 2 m/s 746 mmHg 55%
14:00 +17°C° 0 mm 2 m/s 746 mmHg 59%
15:00 +18°C° 0 mm 1 m/s 746 mmHg 62%
16:00 +16°C° 0 mm 1 m/s 746 mmHg 65%
17:00 +15°C° 0 mm 1 m/s 746 mmHg 68%
18:00 +14°C° 0 mm 1 m/s 746 mmHg 72%
19:00 +14°C° 0 mm 2 m/s 747 mmHg 75%
20:00 +13°C° 0 mm 1 m/s 747 mmHg 78%
21:00 +12°C° 0 mm 1 m/s 747 mmHg 80%
22:00 +12°C° 0 mm 1 m/s 747 mmHg 82%
23:00 +12°C° 0 mm 2 m/s 747 mmHg 83%

30 Septembrie, Miercuri

Timp Temperatura Precipitaţii Vânt Presiune Umiditate
00:00 +10°C° 0 mm 2 m/s 747 mmHg 85%
01:00 +10°C° 0 mm 2 m/s 747 mmHg 86%
02:00 +10°C° 0 mm 3 m/s 747 mmHg 87%
03:00 +11°C° 0 mm 3 m/s 747 mmHg 88%
04:00 +11°C° 0 mm 3 m/s 747 mmHg 90%
05:00 +11°C° 0 mm 3 m/s 747 mmHg 88%
06:00 +11°C° 0 mm 4 m/s 747 mmHg 87%
07:00 +11°C° 0 mm 4 m/s 747 mmHg 85%
08:00 +11°C° 0.1 mm 4 m/s 747 mmHg 86%
09:00 +12°C° 0.1 mm 4 m/s 747 mmHg 86%
10:00 +12°C° 0.1 mm 4 m/s 747 mmHg 87%
11:00 +13°C° 0 mm 4 m/s 746 mmHg 85%
12:00 +14°C° 0 mm 4 m/s 746 mmHg 84%
13:00 +15°C° 0 mm 5 m/s 746 mmHg 82%
14:00 +15°C° 0 mm 5 m/s 746 mmHg 81%
15:00 +16°C° 0 mm 5 m/s 746 mmHg 79%
16:00 +16°C° 0 mm 5 m/s 746 mmHg 78%
17:00 +15°C° 0 mm 5 m/s 746 mmHg 81%
18:00 +15°C° 0 mm 4 m/s 746 mmHg 84%
19:00 +14°C° 0 mm 4 m/s 746 mmHg 87%
20:00 +13°C° 0 mm 4 m/s 746 mmHg 88%
21:00 +13°C° 0 mm 4 m/s 746 mmHg 89%
22:00 +12°C° 0 mm 3 m/s 746 mmHg 90%
23:00 +12°C° 0 mm 3 m/s 745 mmHg 89%
Arată mai mult